2020-12-21 00:07:49 r, 17.47m,0000000009Hz,0000052828c,0000000.115s, 009.6C,00002191
2020-12-21 00:17:49 r, 17.45m,0000000008Hz,0000052040c,0000000.113s, 009.6C,00002191
2020-12-21 00:27:48 r, 17.49m,0000000009Hz,0000054248c,0000000.118s, 009.6C,00002191
2020-12-21 00:37:49 r, 17.54m,0000000009Hz,0000056094c,0000000.122s, 009.6C,00002191
2020-12-21 00:47:49 r, 17.64m,0000000007Hz,0000062052c,0000000.135s, 009.3C,00002191
2020-12-21 00:57:48 r, 17.69m,0000000007Hz,0000064829c,0000000.141s, 009.3C,00002191
2020-12-21 01:07:49 r, 17.76m,0000000007Hz,0000069532c,0000000.151s, 009.0C,00002191
2020-12-21 01:17:50 r, 17.84m,0000000006Hz,0000074463c,0000000.162s, 009.0C,00002191
2020-12-21 01:27:48 r, 17.96m,0000000005Hz,0000083875c,0000000.182s, 008.7C,00002191
2020-12-21 01:37:50 r, 18.04m,0000000005Hz,0000090182c,0000000.196s, 008.3C,00002191
2020-12-21 01:47:49 r, 18.16m,0000000005Hz,0000100595c,0000000.218s, 008.3C,00002191
2020-12-21 01:57:48 r, 18.28m,0000000004Hz,0000112328c,0000000.244s, 008.0C,00002191
2020-12-21 02:07:50 r, 18.30m,0000000004Hz,0000114536c,0000000.249s, 007.7C,00002191
2020-12-21 02:17:49 r, 18.43m,0000000004Hz,0000128573c,0000000.279s, 007.7C,00002191
2020-12-21 02:27:48 r, 18.41m,0000000004Hz,0000127079c,0000000.276s, 007.4C,00002191
2020-12-21 02:37:48 r, 18.41m,0000000004Hz,0000126970c,0000000.276s, 007.4C,00002191
2020-12-21 02:47:49 r, 18.47m,0000000004Hz,0000134880c,0000000.293s, 007.0C,00002191
2020-12-21 02:57:48 r, 18.34m,0000000004Hz,0000119078c,0000000.258s, 007.0C,00002191
2020-12-21 03:07:49 r, 18.16m,0000000004Hz,0000100936c,0000000.219s, 007.0C,00002191
2020-12-21 03:17:48 r, 18.01m,0000000005Hz,0000087619c,0000000.190s, 007.0C,00002191
2020-12-21 03:27:48 r, 18.07m,0000000005Hz,0000092413c,0000000.201s, 007.0C,00002191
2020-12-21 03:37:48 r, 18.15m,0000000005Hz,0000099472c,0000000.216s, 006.7C,00002191
2020-12-21 03:47:50 r, 18.08m,0000000005Hz,0000094169c,0000000.204s, 006.7C,00002191
2020-12-21 03:57:48 r, 18.14m,0000000005Hz,0000099045c,0000000.215s, 006.7C,00002191
2020-12-21 04:07:50 r, 18.13m,0000000005Hz,0000097475c,0000000.212s, 006.7C,00002191
2020-12-21 04:17:49 r, 18.13m,0000000004Hz,0000097615c,0000000.212s, 006.7C,00002191
2020-12-21 04:27:48 r, 18.21m,0000000005Hz,0000105954c,0000000.230s, 006.4C,00002191
2020-12-21 04:37:48 r, 18.08m,0000000005Hz,0000093421c,0000000.203s, 006.4C,00002191
2020-12-21 04:47:48 r, 18.26m,0000000004Hz,0000110799c,0000000.240s, 006.4C,00002191
2020-12-21 04:57:50 r, 18.30m,0000000004Hz,0000114506c,0000000.248s, 006.1C,00002191
2020-12-21 05:07:48 r, 18.43m,0000000004Hz,0000129598c,0000000.281s, 006.1C,00002191
2020-12-21 05:17:49 r, 18.31m,0000000004Hz,0000115899c,0000000.252s, 006.1C,00002191
2020-12-21 05:27:48 r, 18.22m,0000000005Hz,0000106240c,0000000.231s, 006.1C,00002191
2020-12-21 05:37:48 r, 18.22m,0000000004Hz,0000106377c,0000000.231s, 006.1C,00002191
2020-12-21 05:47:50 r, 18.03m,0000000005Hz,0000089913c,0000000.195s, 006.1C,00002191
2020-12-21 05:57:48 r, 18.11m,0000000005Hz,0000095998c,0000000.208s, 006.1C,00002191
2020-12-21 06:07:48 r, 18.11m,0000000005Hz,0000096423c,0000000.209s, 005.8C,00002191
2020-12-21 06:17:50 r, 18.04m,0000000005Hz,0000090144c,0000000.196s, 005.4C,00002191
2020-12-21 06:27:48 r, 18.06m,0000000005Hz,0000092078c,0000000.200s, 005.4C,00002191
2020-12-21 06:37:48 r, 18.05m,0000000005Hz,0000090728c,0000000.197s, 005.1C,00002191
2020-12-21 06:47:48 r, 18.19m,0000000004Hz,0000103696c,0000000.225s, 005.1C,00002191
2020-12-21 06:57:49 r, 18.07m,0000000005Hz,0000093131c,0000000.202s, 004.8C,00002191
2020-12-21 07:07:48 r, 17.84m,0000000006Hz,0000075071c,0000000.163s, 004.8C,00002191
2020-12-21 07:17:49 r, 17.07m,0000000012Hz,0000037116c,0000000.081s, 004.8C,00002191
2020-12-21 07:27:48 r, 16.05m,0000000032Hz,0000014412c,0000000.031s, 004.5C,00002191
2020-12-21 07:37:48 r, 14.44m,0000000142Hz,0000000000c,0000000.000s, 004.5C,00002191
2020-12-21 07:47:48 r, 12.72m,0000000688Hz,0000000000c,0000000.000s, 004.1C,00002191
2020-12-21 07:57:50 r, 11.00m,0000003384Hz,0000000000c,0000000.000s, 003.8C,00002191
2020-12-21 08:07:48 r, 09.36m,0000015229Hz,0000000000c,0000000.000s, 003.5C,00002191
2020-12-21 08:17:50 r, 08.04m,0000051530Hz,0000000000c,0000000.000s, 003.2C,00002191
2020-12-21 08:27:48 r, 07.13m,0000118447Hz,0000000000c,0000000.000s, 002.9C,00002191
2020-12-21 08:37:48 r, 06.76m,0000167596Hz,0000000000c,0000000.000s, 002.5C,00002191
2020-12-21 08:47:48 r, 06.37m,0000239544Hz,0000000000c,0000000.000s, 002.5C,00002191
2020-12-21 08:57:48 r, 06.05m,0000321702Hz,0000000000c,0000000.000s, 002.2C,00002191
2020-12-21 09:07:48 r, 00.00m,0000495562Hz,0000000000c,0000000.000s, 002.2C,00002191
2020-12-21 09:17:48 r, 00.00m,0000599053Hz,0000000000c,0000000.000s, 002.9C,00002191
2020-12-21 09:27:50 r, 00.00m,0000599052Hz,0000000000c,0000000.000s, 003.8C,00002191
2020-12-21 09:37:48 r, 00.00m,0000598913Hz,0000000000c,0000000.000s, 005.8C,00002191
2020-12-21 09:47:49 r, 00.00m,0000598897Hz,0000000000c,0000000.000s, 006.7C,00002191
2020-12-21 09:57:48 r, 00.00m,0000598841Hz,0000000000c,0000000.000s, 006.4C,00002191
2020-12-21 10:07:48 r, 00.00m,0000598766Hz,0000000000c,0000000.000s, 006.4C,00002191
2020-12-21 10:17:50 r, 00.00m,0000598821Hz,0000000000c,0000000.000s, 006.4C,00002191
2020-12-21 10:27:48 r, 00.00m,0000598678Hz,0000000000c,0000000.000s, 006.7C,00002191
2020-12-21 10:37:48 r, 00.00m,0000598880Hz,0000000000c,0000000.000s, 006.7C,00002191
2020-12-21 10:47:50 r, 00.00m,0000598811Hz,0000000000c,0000000.000s, 007.4C,00002191
2020-12-21 10:57:48 r, 00.00m,0000598680Hz,0000000000c,0000000.000s, 007.0C,00002191
2020-12-21 11:07:48 r, 00.00m,0000598709Hz,0000000000c,0000000.000s, 006.7C,00002191
2020-12-21 11:17:48 r, 00.00m,0000598799Hz,0000000000c,0000000.000s, 006.7C,00002191
2020-12-21 11:27:49 r, 00.00m,0000598620Hz,0000000000c,0000000.000s, 006.7C,00002191
2020-12-21 11:37:48 r, 00.00m,0000598707Hz,0000000000c,0000000.000s, 006.1C,00002191
2020-12-21 11:47:49 r, 00.00m,0000598746Hz,0000000000c,0000000.000s, 006.4C,00002191
2020-12-21 11:57:48 r, 00.00m,0000598689Hz,0000000000c,0000000.000s, 007.0C,00002191
2020-12-21 12:07:48 r, 00.00m,0000598634Hz,0000000000c,0000000.000s, 008.0C,00002191
2020-12-21 12:17:48 r, 00.00m,0000598566Hz,0000000000c,0000000.000s, 008.0C,00002191
2020-12-21 12:27:50 r, 00.00m,0000598573Hz,0000000000c,0000000.000s, 008.0C,00002191
2020-12-21 12:37:47 r, 00.00m,0000598555Hz,0000000000c,0000000.000s, 008.0C,00002191
2020-12-21 12:47:50 r, 00.00m,0000598589Hz,0000000000c,0000000.000s, 008.0C,00002191
2020-12-21 12:57:48 r, 00.00m,0000598535Hz,0000000000c,0000000.000s, 008.7C,00002191
2020-12-21 13:07:48 r, 00.00m,0000598449Hz,0000000000c,0000000.000s, 008.3C,00002191
2020-12-21 13:17:50 r, 00.00m,0000598591Hz,0000000000c,0000000.000s, 008.3C,00002191
2020-12-21 13:27:48 r, 00.00m,0000598556Hz,0000000000c,0000000.000s, 008.0C,00002191
2020-12-21 13:37:48 r, 00.00m,0000598596Hz,0000000000c,0000000.000s, 008.0C,00002191
2020-12-21 13:47:48 r, 00.00m,0000598755Hz,0000000000c,0000000.000s, 007.4C,00002191
2020-12-21 13:57:49 r, 00.00m,0000598722Hz,0000000000c,0000000.000s, 006.1C,00002191
2020-12-21 14:07:48 r, 00.00m,0000598805Hz,0000000000c,0000000.000s, 005.1C,00002191
2020-12-21 14:17:49 r, 00.00m,0000598952Hz,0000000000c,0000000.000s, 005.1C,00002191
2020-12-21 14:27:48 r, 00.00m,0000598820Hz,0000000000c,0000000.000s, 005.4C,00002191
2020-12-21 14:37:47 r, 00.00m,0000598840Hz,0000000000c,0000000.000s, 005.8C,00002191
2020-12-21 14:47:48 r, 00.00m,0000598827Hz,0000000000c,0000000.000s, 006.4C,00002191
2020-12-21 14:57:50 r, 00.00m,0000598849Hz,0000000000c,0000000.000s, 006.7C,00002191
2020-12-21 15:07:48 r, 00.00m,0000598762Hz,0000000000c,0000000.000s, 006.4C,00002191
2020-12-21 15:17:50 r, 00.00m,0000565711Hz,0000000000c,0000000.000s, 005.8C,00002191
2020-12-21 15:27:48 r, 00.00m,0000598942Hz,0000000000c,0000000.000s, 004.8C,00002191
2020-12-21 15:37:48 r, 00.00m,0000599046Hz,0000000000c,0000000.000s, 004.5C,00002191
2020-12-21 15:47:50 r, 00.00m,0000599006Hz,0000000000c,0000000.000s, 004.8C,00002191
2020-12-21 15:57:48 r, 00.00m,0000465070Hz,0000000000c,0000000.000s, 004.8C,00002191
2020-12-21 16:07:47 r, 06.11m,0000303790Hz,0000000000c,0000000.000s, 005.1C,00002191
2020-12-21 16:17:48 r, 06.60m,0000193101Hz,0000000000c,0000000.000s, 005.1C,00002191
2020-12-21 16:27:48 r, 07.27m,0000104348Hz,0000000000c,0000000.000s, 005.4C,00002191
2020-12-21 16:37:47 r, 08.23m,0000043058Hz,0000000000c,0000000.000s, 005.1C,00002191
2020-12-21 16:47:49 r, 09.56m,0000012608Hz,0000000000c,0000000.000s, 004.8C,00002191
2020-12-21 16:57:48 r, 11.23m,0000002732Hz,0000000000c,0000000.000s, 005.1C,00002191
2020-12-21 17:07:47 r, 13.04m,0000000513Hz,0000000000c,0000000.000s, 004.8C,00002191
2020-12-21 17:17:50 r, 14.70m,0000000111Hz,0000004190c,0000000.009s, 005.1C,00002191
2020-12-21 17:27:48 r, 16.12m,0000000030Hz,0000015449c,0000000.034s, 005.1C,00002191
2020-12-21 17:37:48 r, 17.02m,0000000013Hz,0000035465c,0000000.077s, 005.4C,00002191
2020-12-21 17:47:50 r, 17.56m,0000000007Hz,0000058331c,0000000.127s, 005.4C,00002191
2020-12-21 17:57:48 r, 17.73m,0000000007Hz,0000067975c,0000000.148s, 005.4C,00002191
2020-12-21 18:07:47 r, 17.66m,0000000007Hz,0000063867c,0000000.139s, 005.4C,00002191
2020-12-21 18:17:48 r, 17.69m,0000000007Hz,0000065390c,0000000.142s, 005.8C,00002191
2020-12-21 18:27:49 r, 17.64m,0000000007Hz,0000062207c,0000000.135s, 005.8C,00002191
2020-12-21 18:37:48 r, 17.59m,0000000008Hz,0000059704c,0000000.130s, 005.4C,00002191
2020-12-21 18:47:49 r, 17.62m,0000000008Hz,0000061251c,0000000.133s, 005.4C,00002191
2020-12-21 18:57:48 r, 17.75m,0000000007Hz,0000069205c,0000000.150s, 005.4C,00002191
2020-12-21 19:07:47 r, 17.85m,0000000006Hz,0000076020c,0000000.165s, 005.4C,00002191
2020-12-21 19:17:48 r, 17.94m,0000000005Hz,0000082391c,0000000.179s, 005.4C,00002191
2020-12-21 19:27:50 r, 17.76m,0000000006Hz,0000070033c,0000000.152s, 005.1C,00002191
2020-12-21 19:37:47 r, 17.33m,0000000010Hz,0000046881c,0000000.102s, 005.1C,00002191
2020-12-21 19:47:50 r, 17.26m,0000000010Hz,0000044056c,0000000.096s, 005.1C,00002191
2020-12-21 19:57:48 r, 17.42m,0000000009Hz,0000051183c,0000000.111s, 005.1C,00002191
2020-12-21 20:07:47 r, 17.67m,0000000007Hz,0000064004c,0000000.139s, 005.1C,00002191
2020-12-21 20:17:50 r, 18.03m,0000000005Hz,0000089804c,0000000.195s, 005.1C,00002191
2020-12-21 20:27:48 r, 18.12m,0000000004Hz,0000097270c,0000000.211s, 005.1C,00002191
2020-12-21 20:37:47 r, 18.04m,0000000006Hz,0000090393c,0000000.196s, 005.1C,00002191
2020-12-21 20:47:48 r, 18.68m,0000000002Hz,0000162032c,0000000.352s, 005.1C,00002191
2020-12-21 20:57:49 r, 19.19m,0000000001Hz,0000260884c,0000000.566s, 005.1C,00002191
2020-12-21 21:07:47 r, 19.23m,0000000002Hz,0000268795c,0000000.583s, 004.8C,00002191
2020-12-21 21:17:49 r, 19.41m,0000000002Hz,0000319775c,0000000.694s, 004.1C,00002191
2020-12-21 21:27:48 r, 19.30m,0000000002Hz,0000287852c,0000000.625s, 003.8C,00002191
2020-12-21 21:37:49 r, 19.53m,0000000001Hz,0000353218c,0000000.767s, 003.5C,00002191
2020-12-21 21:47:47 r, 19.63m,0000000002Hz,0000388798c,0000000.844s, 003.2C,00002191
2020-12-21 21:57:50 r, 19.68m,0000000001Hz,0000405255c,0000000.879s, 003.2C,00002191
2020-12-21 22:07:48 r, 19.67m,0000000001Hz,0000401460c,0000000.871s, 003.2C,00002191
2020-12-21 22:17:47 r, 19.70m,0000000001Hz,0000413974c,0000000.898s, 002.9C,00002191
2020-12-21 22:27:48 r, 19.72m,0000000001Hz,0000420485c,0000000.913s, 002.9C,00002191
2020-12-21 22:37:49 r, 19.74m,0000000001Hz,0000429216c,0000000.931s, 002.9C,00002191
2020-12-21 22:47:47 r, 19.79m,0000000001Hz,0000448387c,0000000.973s, 002.9C,00002191
2020-12-21 22:57:49 r, 19.82m,0000000001Hz,0000459140c,0000000.996s, 002.5C,00002191
2020-12-21 23:07:48 r, 19.84m,0000000001Hz,0000470523c,0000001.021s, 002.5C,00002191
2020-12-21 23:17:47 r, 19.88m,0000000001Hz,0000484046c,0000001.050s, 002.5C,00002191
2020-12-21 23:27:48 r, 19.90m,0000000001Hz,0000496443c,0000001.077s, 002.2C,00002191
2020-12-21 23:37:50 r, 19.93m,0000000001Hz,0000507977c,0000001.102s, 002.2C,00002191
2020-12-21 23:47:47 r, 19.96m,0000000001Hz,0000525248c,0000001.140s, 002.2C,00002191
2020-12-21 23:57:50 r, 19.99m,0000000000Hz,0000538886c,0000001.169s, 002.2C,00002191
